Regional Weather Roundup
Issued by NWS Goodland, KS

Home | Current Version | Previous Version | Graphics & Text | Print | Product List | Glossary On
Versions: 1 2 3 4 5 6 7 8 9 10 11 12 13 14 15 16 17 18 19 20 21 22 23 24 25 26 27 28 29 30 31 32 33 34 35 36 37 38 39 40 41 42 43 44 45 46 47 48 49 50
000
ASUS43 KGLD 181608
RWRGLD

GOODLAND FORECAST AREA HOURLY WEATHER ROUNDUP
NATIONAL WEATHER SERVICE GOODLAND KS
1000 AM MDT SAT APR 18 2015

...OFFICIAL OBSERVATIONS...

CITY           SKY/WX    TMP DP  RH WIND       PRES   REMARKS
GOODLAND KS    CLOUDY    50  47  89 NE10      29.91F
HILL CITY KS   CLOUDY    57  52  83 CALM      29.91S
IMPERIAL NEB   MOSUNNY   55  45  68 E5        29.91F
MCCOOK NEB     SUNNY     58  49  72 SE8       29.91R
AKRON CO       CLOUDY    43  40  89 N8        29.93S
BURLINGTON CO  CLOUDY    47  42  83 E9        29.91R
LIMON CO       CLOUDY    40  37  89 N8        29.93S
$$

...UNOFFICIAL OBSERVATIONS...

CITY           SKY/WX    TMP DP  RH WIND       PRES   REMARKS
COLBY KS       CLOUDY    54  54 100 NE9       29.92
GOVE KS          N/A     54  32  43 MISG        N/A
LENORA KS        N/A     55  32  41 MISG        N/A
NORTON KS      MOSUNNY   57  48  72 E5        29.89
SHARON SPRINGS   N/A     48  47  96 MISG        N/A
TRIBUNE KS     PTSUNNY   50  48  93 N7        29.90F
YUMA CO          N/A     45  43  94 NE10        N/A
$$


USA.gov is the U.S. government's official web portal to all federal, state and local government web resources and services.